[[{"header":{"parameterUnit":"m.s-1","parameterCategory":1,"la1":30.2991,"la2":30.254,"lo1":-89.0895,"lo2":-89.0444,"dy":0.0017,"dx":0.0017,"nx":28,"ny":28,"refTime":"2024-02-22T09:00:00:Z","depth":0,"parameterNumber":2,"parameterNumberName":"U-component_of_WINDS"},"data":[0,0,0,0,0,0,0,0,0,0,0,0,0,0,0,0,0,0,0,0,0,0,0,0,0,0,0,0,0,0,0,0,0,0,0,0,0,0,0,0,0,0,0,0,0,0,0,0,0,0,0,0,0,0,0,0,0,0,2.3911,2.3912,0,2.3964,2.3965,2.3965,2.3948,2.3947,2.3946,2.3945,2.4001,2.4003,2.4006,0,0,0,0,0,0,0,0,0,0,0,0,0,2.3798,2.38,2.3911,2.3912,2.3912,2.3964,2.3965,2.3965,2.3948,2.3947,2.3946,2.3944,2.4,2.4003,2.4006,0,0,0,0,0,0,0,0,0,0,0,0,0,2.3849,2.3801,2.3911,2.391,2.3911,2.3964,2.3965,2.3966,2.3949,2.3947,2.3945,2.3944,2.3999,2.4003,2.4006,2.4064,0,0,2.4018,2.402,0,0,0,0,0,0,0,0,2.3846,2.3853,2.391,2.391,2.3911,2.3948,2.3945,2.3999,2.3949,2.3934,2.3945,2.3943,2.3985,2.3989,2.4003,2.4067,2.4069,2.4018,2.4021,2.4022,2.4024,0,0,0,0,0,0,0,2.3842,2.3851,2.3932,2.391,2.3911,2.3908,2.3913,2.3955,2.3968,2.3935,2.3934,2.3941,2.3985,2.4,2.4004,2.407,2.4018,2.4022,2.4024,2.4026,2.4186,2.4188,0,0,0,0,0,0,2.3838,2.3848,2.393,2.3934,2.3873,2.3911,2.3917,2.3938,2.3968,2.3971,2.3942,2.394,2.3994,2.4,2.4006,2.4078,2.4022,2.4026,2.4028,2.4184,2.4187,2.4189,0,0,0,0,0,0,2.3836,2.3846,2.3928,2.3891,2.3901,2.3915,2.3938,2.394,2.3954,2.3973,2.3975,2.3955,2.3993,2.4001,2.405,2.4079,2.4028,2.4031,2.4182,2.4185,2.4188,2.422,0,0,0,0,0,0,2.3833,2.3845,2.3866,2.3891,2.3903,2.3971,2.394,2.3942,2.3961,2.3958,2.3986,2.3988,2.3992,2.4045,2.4054,2.4084,2.4034,2.418,2.4183,2.4187,2.4216,2.4224,2.423,0,0,0,0,0,2.3829,2.3873,2.3868,2.3878,2.393,2.3972,2.3979,2.3982,2.3963,2.3986,2.3998,2.3988,2.4074,2.405,2.406,2.4092,2.4178,2.4182,2.4187,2.4213,2.4222,2.423,0,0,0,0,0,0,2.3852,2.3876,2.387,2.3924,2.3946,2.3969,2.3997,2.3991,2.4019,2.4016,2.4018,2.4025,2.4076,2.4089,2.4061,2.415,2.4124,2.413,2.414,2.4149,2.4155,2.4152,2.4037,0,0,0,0,0,2.3863,2.3895,2.3915,2.396,2.3972,2.3983,2.4001,2.4002,2.4025,2.4035,2.405,2.4074,2.4107,2.4128,2.4159,2.4218,2.4225,2.4245,2.4251,2.4257,2.4263,2.4297,2.4306,2.4204,2.4204,2.4203,0,0,2.3887,2.3904,2.3924,2.3966,2.3983,2.4017,2.3991,2.4027,2.4053,2.404,2.4088,2.4101,2.4127,2.4182,2.4207,2.4194,2.4293,2.4262,2.4267,2.427,2.4302,2.4312,2.4321,2.4207,2.4206,2.4206,0,0,2.3948,2.3964,2.4004,2.4022,2.4048,2.4056,2.4065,2.409,2.4098,2.4146,2.4137,2.4168,2.4224,2.4244,2.4262,2.4332,2.4324,2.4342,2.4377,2.441,2.4418,2.4426,2.4452,2.4462,2.4348,2.4348,2.4348,0,2.3974,2.4024,2.4026,2.4064,2.4083,2.4073,2.4115,2.4132,2.4168,2.4182,2.4166,2.4238,2.4255,2.4315,2.4332,2.4346,2.4359,2.4339,2.4417,2.4424,2.4431,2.4457,2.4466,2.435,2.435,2.4349,2.4349,0,2.4057,2.4092,2.4121,2.4156,2.4178,2.4218,2.4226,2.4249,2.4248,2.4257,2.4307,2.4328,2.4363,2.4377,2.4376,2.4438,2.443,2.4416,2.4389,2.4443,2.4467,2.4477,2.4353,2.4352,2.4352,2.4351,0,0,2.4133,2.4169,2.418,2.4196,2.4225,2.4253,2.4293,2.4327,2.4348,2.4373,2.4407,2.4456,2.4444,2.4463,2.4465,2.4493,2.455,2.4476,2.4477,2.4491,2.4621,2.4632,2.4644,2.4545,2.4547,2.4548,2.462,0,2.4198,2.4267,2.427,2.4334,2.4368,2.4359,2.4394,2.4416,2.4426,2.4457,2.4468,2.4503,2.4483,2.4496,2.4524,2.4537,2.4576,2.4532,2.4578,2.458,2.4573,2.4656,2.4667,2.4734,2.4629,2.463,2.4632,0,2.4282,2.431,2.4377,2.4403,2.4417,2.4448,2.4481,2.451,2.4536,2.4541,2.4564,2.4562,2.4604,2.4576,2.4635,2.4605,2.4624,2.4634,2.4637,2.4642,2.461,2.4665,2.4755,2.4766,2.4646,2.4645,2.4644,0,2.4333,2.4388,2.4435,2.4449,2.448,2.4503,2.4517,2.4541,2.4562,2.4591,2.4605,2.4639,2.4658,2.4685,2.4692,2.467,2.4752,2.4723,2.4759,2.4759,2.4777,2.4776,2.4873,2.4788,2.4788,2.4787,2.4787,0,2.4406,2.4447,2.4459,2.4488,2.4536,2.4539,2.4586,2.4599,2.462,2.4653,2.4648,2.4679,2.4686,2.4719,2.4725,2.4774,2.4782,2.4789,2.479,2.479,2.479,2.4804,2.48,2.479,2.4789,2.4789,2.4788,0,2.4471,2.448,2.4532,2.4557,2.4564,2.4598,2.462,2.4649,2.4659,2.47,2.471,2.4726,2.4764,2.4774,2.482,2.4824,2.4883,2.4879,2.4874,2.4875,2.491,2.4907,2.5021,2.5036,2.4939,2.494,2.4941,0,2.4517,2.4549,2.4578,2.4599,2.4614,2.4649,2.467,2.4676,2.4699,2.4732,2.4757,2.4795,2.4826,2.4888,2.4904,2.494,2.4938,2.4975,2.4943,2.4942,2.494,2.4939,2.4943,2.4981,2.4982,2.4983,2.4984,0,2.4598,2.4602,2.4633,2.4666,2.4693,2.4719,2.4745,2.4763,2.4772,2.4799,2.4838,2.4862,2.4909,2.4947,2.4984,2.4999,2.4994,2.4994,2.5004,2.5005,2.5001,2.5005,2.4892,2.4991,2.499,2.499,2.499,2.4989,2.4657,2.4685,2.471,2.4746,2.4766,2.479,2.4819,2.4833,2.4865,2.4904,2.4905,2.4949,2.4975,2.5023,2.5041,2.5076,2.5065,2.5079,2.5083,2.5087,2.5091,2.4995,2.5082,2.5082,2.5082,2.5082,2.5082,0,2.4739,2.4755,2.4787,2.4824,2.4852,2.4844,2.4872,2.4897,2.4935,2.496,2.499,2.5036,2.5074,2.5093,2.5131,2.5155,2.5154,2.5165,2.5164,2.5168,2.5098,2.5086,2.5165,2.5165,2.5165,2.5165,2.5165,2.5165,2.4785,2.4834,2.484,2.49,2.4915,2.4957,2.4975,2.4998,2.5018,2.5069,2.5101,2.5113,2.5136,2.5175,2.521,2.5215,2.523,2.5243,2.5246,2.5181,2.5172,2.5164,2.5153,2.5245,2.5245,2.5313,2.5314,2.5314]},{"header":{"parameterUnit":"m.s-1","parameterCategory":1,"la1":30.2991,"la2":30.254,"lo1":-89.0895,"lo2":-89.0444,"dy":0.0017,"dx":0.0017,"nx":28,"ny":28,"refTime":"2024-02-22T09:00:00:Z","depth":0,"parameterNumber":3,"parameterNumberName":"V-component_of_WINDS"},"data":[0,0,0,0,0,0,0,0,0,0,0,0,0,0,0,0,0,0,0,0,0,0,0,0,0,0,0,0,0,0,0,0,0,0,0,0,0,0,0,0,0,0,0,0,0,0,0,0,0,0,0,0,0,0,0,0,0,0,-3.2572,-3.2572,0,-3.2663,-3.2664,-3.2665,-3.2677,-3.2676,-3.2676,-3.2675,-3.277,-3.2774,-3.2777,0,0,0,0,0,0,0,0,0,0,0,0,0,-3.2411,-3.2414,-3.2571,-3.2573,-3.2574,-3.2663,-3.2664,-3.2665,-3.2677,-3.2676,-3.2675,-3.2674,-3.2769,-3.2773,-3.2777,0,0,0,0,0,0,0,0,0,0,0,0,0,-3.2489,-3.2415,-3.2571,-3.259,-3.2593,-3.2662,-3.2664,-3.2665,-3.2678,-3.2676,-3.2675,-3.2674,-3.2768,-3.2773,-3.2778,-3.2835,0,0,-3.2793,-3.2795,0,0,0,0,0,0,0,0,-3.2485,-3.2495,-3.2587,-3.2589,-3.2592,-3.2657,-3.2642,-3.2722,-3.2678,-3.2646,-3.2675,-3.2673,-3.2734,-3.2742,-3.2762,-3.2839,-3.2843,-3.2794,-3.2797,-3.2799,-3.28,0,0,0,0,0,0,0,-3.2479,-3.2491,-3.2608,-3.2588,-3.2591,-3.2596,-3.2605,-3.2658,-3.2696,-3.2648,-3.2649,-3.266,-3.2735,-3.2757,-3.2764,-3.2845,-3.2794,-3.2798,-3.2801,-3.2803,-3.2976,-3.2978,0,0,0,0,0,0,-3.247,-3.2487,-3.2605,-3.261,-3.2534,-3.26,-3.261,-3.2638,-3.2695,-3.2703,-3.2661,-3.266,-3.2749,-3.2758,-3.2767,-3.284,-3.2799,-3.2804,-3.2806,-3.2975,-3.2976,-3.2978,0,0,0,0,0,0,-3.2466,-3.248,-3.2601,-3.2549,-3.2565,-3.2604,-3.2634,-3.264,-3.2662,-3.2705,-3.2712,-3.2676,-3.2748,-3.276,-3.2818,-3.2843,-3.2806,-3.281,-3.2973,-3.2975,-3.2977,-3.2983,0,0,0,0,0,0,-3.2462,-3.2479,-3.25,-3.2549,-3.2567,-3.2649,-3.2636,-3.2643,-3.267,-3.267,-3.2721,-3.2728,-3.2748,-3.2811,-3.2823,-3.2849,-3.2814,-3.2971,-3.2974,-3.2977,-3.2981,-3.2986,-3.299,0,0,0,0,0,-3.2456,-3.2498,-3.2501,-3.2515,-3.2595,-3.2651,-3.2661,-3.2683,-3.2672,-3.2695,-3.2723,-3.2726,-3.2838,-3.2817,-3.2831,-3.2859,-3.2969,-3.2973,-3.2976,-3.2979,-3.2985,-3.2989,0,0,0,0,0,0,-3.2452,-3.2505,-3.2509,-3.2568,-3.2605,-3.2653,-3.2682,-3.2688,-3.2729,-3.2727,-3.2753,-3.2764,-3.2822,-3.2846,-3.2821,-3.2918,-3.2903,-3.2909,-3.29,-3.2906,-3.291,-3.2903,-3.2818,0,0,0,0,0,-3.2458,-3.2498,-3.2543,-3.2591,-3.2609,-3.2642,-3.2667,-3.2681,-3.272,-3.2736,-3.2768,-3.2807,-3.2851,-3.288,-3.2922,-3.2984,-3.2997,-3.3011,-3.3015,-3.3018,-3.3024,-3.3061,-3.3068,-3.299,-3.299,-3.299,0,0,-3.247,-3.2504,-3.2528,-3.2591,-3.2621,-3.2663,-3.2655,-3.27,-3.2732,-3.2743,-3.28,-3.2825,-3.287,-3.2931,-3.2959,-3.2953,-3.3048,-3.3023,-3.3025,-3.3029,-3.3065,-3.3072,-3.3079,-3.2992,-3.2992,-3.2991,0,0,-3.2515,-3.2545,-3.2589,-3.2619,-3.2664,-3.2686,-3.2697,-3.2744,-3.2761,-3.2819,-3.2829,-3.2868,-3.2942,-3.2975,-3.3001,-3.306,-3.3066,-3.3073,-3.3095,-3.3131,-3.3137,-3.3142,-3.3165,-3.3173,-3.3078,-3.3078,-3.3078,0,-3.2526,-3.2589,-3.2611,-3.2656,-3.2684,-3.2695,-3.2741,-3.277,-3.2827,-3.2847,-3.2838,-3.2934,-3.2965,-3.3034,-3.3049,-3.3069,-3.3083,-3.3068,-3.3134,-3.314,-3.3145,-3.3167,-3.3176,-3.3079,-3.3079,-3.3079,-3.3079,0,-3.2601,-3.2645,-3.2675,-3.273,-3.2761,-3.2806,-3.2836,-3.2865,-3.2876,-3.29,-3.2959,-3.2997,-3.3048,-3.3065,-3.3077,-3.3137,-3.3132,-3.3128,-3.3114,-3.3153,-3.3175,-3.3183,-3.308,-3.308,-3.308,-3.3079,0,0,-3.2646,-3.2712,-3.2723,-3.2749,-3.2801,-3.2836,-3.2882,-3.2932,-3.2958,-3.2997,-3.3038,-3.3101,-3.3099,-3.3129,-3.3144,-3.3175,-3.3221,-3.3168,-3.3169,-3.3178,-3.3292,-3.3296,-3.3305,-3.3225,-3.3227,-3.3228,-3.3289,0,-3.2698,-3.278,-3.2801,-3.2872,-3.2914,-3.2926,-3.2967,-3.3004,-3.3027,-3.3067,-3.3093,-3.3138,-3.313,-3.3149,-3.318,-3.3209,-3.3245,-3.3205,-3.3265,-3.3267,-3.3254,-3.3316,-3.3319,-3.3375,-3.3297,-3.3299,-3.33,0,-3.277,-3.2811,-3.2886,-3.2933,-3.2952,-3.2988,-3.3036,-3.3074,-3.3116,-3.3131,-3.3165,-3.3177,-3.3228,-3.321,-3.3281,-3.3253,-3.3279,-3.3297,-3.33,-3.3307,-3.3286,-3.3327,-3.3393,-3.3402,-3.3313,-3.3312,-3.3311,0,-3.2797,-3.2871,-3.2926,-3.2947,-3.3004,-3.3029,-3.3054,-3.3095,-3.3125,-3.3167,-3.3187,-3.3234,-3.3261,-3.3299,-3.3324,-3.3309,-3.3394,-3.3377,-3.3409,-3.3409,-3.3427,-3.3426,-3.3501,-3.3441,-3.3441,-3.3441,-3.3441,0,-3.2854,-3.29,-3.2939,-3.2973,-3.3025,-3.305,-3.3101,-3.3126,-3.3163,-3.3203,-3.3216,-3.3254,-3.3285,-3.3327,-3.3347,-3.3404,-3.3416,-3.343,-3.3435,-3.343,-3.3428,-3.3448,-3.3446,-3.3443,-3.3443,-3.3442,-3.3442,0,-3.2894,-3.2922,-3.2983,-3.3031,-3.3045,-3.3081,-3.3123,-3.3158,-3.3181,-3.3232,-3.3245,-3.3283,-3.3333,-3.3363,-3.3426,-3.344,-3.3503,-3.3506,-3.3489,-3.3492,-3.3522,-3.352,-3.3614,-3.3628,-3.3557,-3.3558,-3.3559,0,-3.2929,-3.2965,-3.3017,-3.3045,-3.307,-3.3114,-3.3144,-3.317,-3.3201,-3.3253,-3.3281,-3.3332,-3.3375,-3.3455,-3.3489,-3.3538,-3.3543,-3.3573,-3.3551,-3.3545,-3.3546,-3.3544,-3.3549,-3.3577,-3.3578,-3.3578,-3.3578,0,-3.299,-3.3002,-3.3044,-3.3092,-3.3127,-3.3166,-3.3205,-3.3227,-3.326,-3.3294,-3.3346,-3.3378,-3.3444,-3.3495,-3.3547,-3.3574,-3.3583,-3.3585,-3.3595,-3.3591,-3.358,-3.3588,-3.3501,-3.3583,-3.3583,-3.3582,-3.3582,-3.3582,-3.3029,-3.3062,-3.3105,-3.3152,-3.3184,-3.322,-3.3255,-3.3283,-3.3327,-3.3381,-3.3394,-3.3449,-3.3493,-3.3563,-3.3592,-3.3636,-3.3631,-3.3645,-3.3649,-3.3653,-3.3655,-3.3572,-3.3645,-3.3645,-3.3645,-3.3645,-3.3645,0,-3.3092,-3.312,-3.3163,-3.3217,-3.3255,-3.3258,-3.3302,-3.3333,-3.3381,-3.3421,-3.3462,-3.3523,-3.3573,-3.3611,-3.3663,-3.3691,-3.3696,-3.3704,-3.3703,-3.3709,-3.3655,-3.3642,-3.3699,-3.3699,-3.3699,-3.3699,-3.3699,-3.3699,-3.3129,-3.3185,-3.3203,-3.3276,-3.3304,-3.3357,-3.3382,-3.3416,-3.3448,-3.3514,-3.3556,-3.358,-3.362,-3.3675,-3.3722,-3.3732,-3.3751,-3.3758,-3.3769,-3.3718,-3.3713,-3.3707,-3.3695,-3.3762,-3.3762,-3.382,-3.382,-3.3821]}]]